FLOCK 3P-53

Last updated on Wed Feb 14 2018 16:20:32 GMT+0000 (Coordinated Universal Time)

1 42013U 17008BT 18044.73515890 .00002335 00000-0 99601-4 0 9993 2 42013 97.4656 110.3317 0009196 91.4750 268.7541 15.23896171 55103

Satellite not in orbit

FLOCK 3P-53